Tracking 29510 objects as of 16-Sep-2024
HD Live streaming from Space Station
objects crossing your sky now

COSMOS 1823 DEB

Track COSMOS 1823 DEB now!
10-day predictions


NORAD ID: 18755
Int'l Code: 1987-020AG
Perigee: 1,476.3 km
Apogee: 1,531.2 km
Inclination: 73.6 °
Period: 115.9 minutes
Semi major axis: 7874 km
RCS: 0.0433 m2 (small)
Launch date: February 20, 1987
Source: Commonwealth of Independent States (former USSR) (CIS)
Launch site: PLESETSK MISSILE AND SPACE COMPLEX (PKMTR)

Note: This is SATELLITE DEBRIS
Your satellite tracking list
Your tracking list is empty




NASA's NSSDC Master Catalog

Two Line Element Set (TLE):
1 18755U 87020AG  24259.93671670  .00000084  00000-0  73378-3 0  9997
2 18755  73.6427 210.0422 0034846  25.5811  46.3659 12.42367345665833
Source of the keplerian elements: AFSPC